Scarborough,

2:10 AM AST on April 30, 2017 (GMT -0400)
Scarborough

Weather History for TTCP - August, 2012

Change the Weather History Date:

Friday, August 3, 2012

  Actual Average Record
Temperature  
Mean Temperature 78 °F -  
Max Temperature 82 °F 85 °F 91 °F (2013)
Min Temperature 75 °F 75 °F 68 °F (2005)
Cooling Degree Days 14    
Growing Degree Days 28 (Base 50)    
Moisture  
Dew Point 75 °F    
Average Humidity 89    
Maximum Humidity 100    
Minimum Humidity 79    
Precipitation  
Precipitation 0.00 in - - ()
Sea Level Pressure  
Sea Level Pressure 29.87 in    
Wind  
Wind Speed 7 mph ()    
Max Wind Speed 24 mph    
Max Gust Speed 41 mph    
Visibility 5.6 miles    
Events Rain , Thunderstorm    
Averages and records for this station are not official NWS values.
T = Trace of Precipitation, MM = Missing Value Source: Averaged Metar Reports

Daily Weather History Graph

Daily Weather History Graph

Search for Another Location

Airport or City:

Trip Planner

Search our weather history database for the weather conditions in past years. The results will help you decide how hot, cold, wet, or windy it might be!

Date:

Astronomy

Aug. 03, 2012 Rise Set
Actual Time 5:51 AM AST 6:27 PM AST
Civil Twilight 5:29 AM AST 6:49 PM AST
Nautical Twilight 5:03 AM AST 7:15 PM AST
Astronomical Twilight 4:37 AM AST 7:41 PM AST
Moon 7:37 PM AST (8/3) 7:02 AM AST (8/3)
Length of Visible Light 13h 19m
Length of Day
12h 35m
Full, 97% of the Moon is Illuminated
Aug 3
Full
Aug 9
Last Quarter
Aug 17
New
Aug 24
First Quarter
Aug 31
Full

Hourly Weather History & Observations

Time (AST) Temp. Heat Index Dew Point Humidity Pressure Visibility Wind Dir Wind Speed Gust Speed Precip Events Conditions
1:00 AM 78.8 °F - 75.2 °F 89% 29.86 in 3.7 mi Calm Calm - N/A Rain Rain Showers
1:15 AM 77.0 °F - 75.2 °F 94% 29.83 in 5.6 mi Calm Calm - N/A Rain , Thunderstorm Light Thunderstorms and Rain
2:00 AM 77.0 °F - 75.2 °F 94% 29.83 in 6.2 mi Calm Calm - N/A Thunderstorm Thunderstorm
3:00 AM 75.2 °F - 73.4 °F 94% 29.83 in 6.2 mi Calm Calm - N/A   Mostly Cloudy
4:00 AM 75.2 °F - 73.4 °F 94% 29.83 in 6.2 mi Calm Calm - N/A   Mostly Cloudy
4:18 AM 77.0 °F - 73.4 °F 89% 29.83 in 6.2 mi Calm Calm - N/A Thunderstorm Light Thunderstorm
5:00 AM 77.0 °F - 75.2 °F 94% 29.83 in 6.2 mi Calm Calm - N/A   Mostly Cloudy
6:00 AM 77.0 °F - 73.4 °F 89% 29.83 in 6.2 mi Calm Calm - N/A   Mostly Cloudy
7:00 AM 78.8 °F - 75.2 °F 89% 29.83 in 6.2 mi ESE 9.2 mph - N/A   Mostly Cloudy
8:00 AM 80.6 °F 86.2 °F 75.2 °F 84% 29.86 in 6.2 mi SE 11.5 mph - N/A   Mostly Cloudy
9:00 AM 80.6 °F 86.2 °F 75.2 °F 84% 29.89 in 6.2 mi SSE 11.5 mph - N/A   Mostly Cloudy
10:00 AM 80.6 °F 87.1 °F 77.0 °F 89% 29.92 in 3.7 mi ESE 16.1 mph - N/A Rain Light Rain Showers
10:32 AM 77.0 °F - 77.0 °F 100% 29.92 in 0.5 mi SE 24.2 mph 36.8 mph N/A Rain Rain Showers
11:00 AM 75.2 °F - 75.2 °F 100% 29.92 in 6.2 mi South 16.1 mph - N/A Rain Light Rain
12:00 PM 80.6 °F 86.2 °F 75.2 °F 84% 29.89 in 6.2 mi SSE 18.4 mph 28.8 mph N/A   Mostly Cloudy
1:00 PM 82.4 °F 90.9 °F 77.0 °F 84% 29.89 in 6.2 mi SE 20.7 mph - N/A   Mostly Cloudy
2:00 PM 82.4 °F 90.9 °F 77.0 °F 84% 29.89 in 3.1 mi SE 23.0 mph 41.4 mph N/A Rain Light Rain Showers
3:00 PM 77.0 °F - 75.2 °F 94% 29.86 in 6.2 mi SE 24.2 mph - N/A Rain Light Rain
4:00 PM 78.8 °F - 75.2 °F 89% 29.86 in 6.2 mi SE 18.4 mph - N/A Rain Light Rain
5:00 PM 80.6 °F 86.2 °F 75.2 °F 84% 29.86 in 6.2 mi SE 13.8 mph - N/A   Mostly Cloudy
6:00 PM 80.6 °F 86.2 °F 75.2 °F 84% 29.86 in 6.2 mi ESE 15.0 mph - N/A   Mostly Cloudy
7:00 PM 82.4 °F 89.5 °F 75.2 °F 79% 29.89 in 6.2 mi ESE 18.4 mph - N/A   Mostly Cloudy
8:00 PM 82.4 °F 89.5 °F 75.2 °F 79% 29.92 in 6.2 mi ESE 18.4 mph - N/A   Mostly Cloudy
9:00 PM 80.6 °F 87.1 °F 77.0 °F 89% 29.95 in 6.2 mi ESE 20.7 mph - N/A   Mostly Cloudy
10:00 PM 82.4 °F 90.9 °F 77.0 °F 84% 29.95 in 6.2 mi ESE 18.4 mph - N/A   Mostly Cloudy